• In Germany
  • List of Countries
  • For 7 days
  • Water Temperature
  • Satellite Maps
  • Weather Map
  • Weather Widgets
  • user-avatar
    Login

    Hourly Weather Sidi Bu-l-Abbas

    Today, 26 September, Tuesday

    Time Temperature Precipitation Wind Pressure Humidity
    00:00 +23°C° 0 mm 1 mps 722 mmHg 49%
    01:00 +23°C° 0 mm 1 mps 722 mmHg 48%
    02:00 +22°C° 0 mm 1 mps 722 mmHg 48%
    03:00 +22°C° 0 mm 1 mps 721 mmHg 47%
    04:00 +22°C° 0 mm 1 mps 721 mmHg 45%
    05:00 +21°C° 0 mm 1 mps 721 mmHg 43%
    06:00 +21°C° 0 mm 1 mps 721 mmHg 41%
    07:00 +23°C° 0 mm 1 mps 722 mmHg 36%
    08:00 +25°C° 0 mm 2 mps 722 mmHg 31%
    09:00 +28°C° 0 mm 2 mps 723 mmHg 26%
    10:00 +28°C° 0 mm 2 mps 723 mmHg 26%
    11:00 +29°C° 0 mm 3 mps 723 mmHg 26%
    12:00 +30°C° 0 mm 4 mps 723 mmHg 26%
    13:00 +30°C° 0 mm 4 mps 722 mmHg 27%
    14:00 +30°C° 0 mm 4 mps 722 mmHg 27%
    15:00 +30°C° 0 mm 4 mps 722 mmHg 28%
    16:00 +29°C° 0 mm 4 mps 722 mmHg 31%
    17:00 +28°C° 0 mm 3 mps 722 mmHg 35%
    18:00 +27°C° 0 mm 3 mps 722 mmHg 38%
    19:00 +26°C° 0 mm 2 mps 722 mmHg 42%
    20:00 +26°C° 0 mm 2 mps 722 mmHg 45%
    21:00 +25°C° 0 mm 1 mps 723 mmHg 49%
    22:00 +24°C° 0 mm 1 mps 723 mmHg 51%
    23:00 +24°C° 0 mm 1 mps 723 mmHg 53%

    Tomorrow, 27 September, Wednesday

    Time Temperature Precipitation Wind Pressure Humidity
    00:00 +23°C° 0 mm 1 mps 723 mmHg 55%
    01:00 +23°C° 0 mm 1 mps 722 mmHg 57%
    02:00 +22°C° 0 mm 1 mps 722 mmHg 60%
    03:00 +22°C° 0 mm 1 mps 722 mmHg 62%
    04:00 +22°C° 0 mm 1 mps 722 mmHg 64%
    05:00 +19°C° 0 mm 0 mps 722 mmHg 66%
    06:00 +19°C° 0 mm 0 mps 722 mmHg 68%
    07:00 +20°C° 0 mm 0 mps 723 mmHg 62%
    08:00 +22°C° 0 mm 0 mps 723 mmHg 55%
    09:00 +25°C° 0 mm 1 mps 724 mmHg 49%
    10:00 +26°C° 0 mm 1 mps 724 mmHg 45%
    11:00 +27°C° 0 mm 2 mps 724 mmHg 40%
    12:00 +29°C° 0 mm 2 mps 724 mmHg 36%
    13:00 +29°C° 0 mm 3 mps 723 mmHg 38%
    14:00 +29°C° 0 mm 4 mps 723 mmHg 39%
    15:00 +29°C° 0 mm 5 mps 723 mmHg 40%
    16:00 +28°C° 0 mm 4 mps 723 mmHg 46%
    17:00 +27°C° 0 mm 4 mps 723 mmHg 52%
    18:00 +25°C° 0 mm 4 mps 723 mmHg 57%
    19:00 +25°C° 0 mm 3 mps 724 mmHg 58%
    20:00 +25°C° 0 mm 3 mps 724 mmHg 59%
    21:00 +25°C° 0 mm 3 mps 725 mmHg 60%
    22:00 +24°C° 0 mm 2 mps 725 mmHg 60%
    23:00 +24°C° 0 mm 2 mps 725 mmHg 60%

    Day after tomorrow, 28 September, Thursday

    Time Temperature Precipitation Wind Pressure Humidity
    00:00 +24°C° 0 mm 2 mps 724 mmHg 60%
    01:00 +24°C° 0 mm 2 mps 724 mmHg 59%
    02:00 +24°C° 0 mm 2 mps 724 mmHg 59%
    03:00 +24°C° 0 mm 2 mps 724 mmHg 58%
    04:00 +23°C° 0 mm 2 mps 724 mmHg 59%
    05:00 +23°C° 0 mm 2 mps 724 mmHg 60%
    06:00 +23°C° 0 mm 2 mps 724 mmHg 60%
    07:00 +24°C° 0 mm 2 mps 724 mmHg 54%
    08:00 +25°C° 0 mm 2 mps 724 mmHg 48%
    09:00 +27°C° 0 mm 3 mps 725 mmHg 42%
    10:00 +28°C° 0 mm 3 mps 725 mmHg 37%
    11:00 +30°C° 0 mm 4 mps 724 mmHg 33%
    12:00 +32°C° 0 mm 5 mps 724 mmHg 29%
    13:00 +32°C° 0 mm 5 mps 724 mmHg 29%
    14:00 +32°C° 0 mm 6 mps 724 mmHg 28%
    15:00 +32°C° 0 mm 7 mps 723 mmHg 28%
    16:00 +30°C° 0.1 mm 7 mps 723 mmHg 31%
    17:00 +29°C° 0.1 mm 6 mps 723 mmHg 34%
    18:00 +27°C° 0.1 mm 6 mps 723 mmHg 37%
    19:00 +27°C° 0.1 mm 5 mps 724 mmHg 39%
    20:00 +26°C° 0.1 mm 4 mps 724 mmHg 42%
    21:00 +26°C° 0.1 mm 3 mps 724 mmHg 44%
    22:00 +25°C° 0.1 mm 2 mps 724 mmHg 47%
    23:00 +25°C° 0.1 mm 2 mps 724 mmHg 50%

    29 September, Friday

    Time Temperature Precipitation Wind Pressure Humidity
    00:00 +24°C° 0.1 mm 2 mps 723 mmHg 53%
    01:00 +24°C° 0.1 mm 2 mps 723 mmHg 56%
    02:00 +23°C° 0.1 mm 2 mps 723 mmHg 59%
    03:00 +23°C° 0.1 mm 2 mps 723 mmHg 62%
    04:00 +23°C° 0.3 mm 2 mps 723 mmHg 63%
    05:00 +21°C° 0.3 mm 2 mps 723 mmHg 64%
    06:00 +21°C° 0.3 mm 3 mps 723 mmHg 65%
    07:00 +23°C° 0 mm 2 mps 723 mmHg 61%
    08:00 +24°C° 0 mm 2 mps 724 mmHg 57%
    09:00 +25°C° 0 mm 2 mps 724 mmHg 53%
    10:00 +26°C° 0 mm 3 mps 724 mmHg 49%
    11:00 +27°C° 0 mm 3 mps 724 mmHg 45%
    12:00 +28°C° 0 mm 4 mps 724 mmHg 41%
    13:00 +29°C° 0 mm 4 mps 724 mmHg 42%
    14:00 +29°C° 0 mm 5 mps 723 mmHg 43%
    15:00 +29°C° 0 mm 5 mps 723 mmHg 44%
    16:00 +28°C° 0 mm 5 mps 723 mmHg 48%
    17:00 +27°C° 0 mm 5 mps 723 mmHg 52%
    18:00 +26°C° 0 mm 4 mps 723 mmHg 56%
    19:00 +25°C° 0 mm 4 mps 723 mmHg 59%
    20:00 +24°C° 0 mm 3 mps 723 mmHg 62%
    21:00 +24°C° 0 mm 2 mps 724 mmHg 65%
    22:00 +23°C° 0 mm 2 mps 723 mmHg 67%
    23:00 +23°C° 0 mm 2 mps 723 mmHg 69%

    30 September, Saturday

    Time Temperature Precipitation Wind Pressure Humidity
    00:00 +21°C° 0 mm 2 mps 723 mmHg 72%
    01:00 +21°C° 0 mm 2 mps 723 mmHg 74%
    02:00 +22°C° 0 mm 1 mps 722 mmHg 76%
    03:00 +21°C° 0 mm 1 mps 722 mmHg 79%
    04:00 +21°C° 0 mm 1 mps 722 mmHg 81%
    05:00 +21°C° 0 mm 1 mps 722 mmHg 83%
    06:00 +20°C° 0 mm 1 mps 722 mmHg 85%
    07:00 +21°C° 0 mm 1 mps 722 mmHg 77%
    08:00 +22°C° 0 mm 1 mps 723 mmHg 69%
    09:00 +23°C° 0 mm 1 mps 723 mmHg 61%
    10:00 +25°C° 0 mm 2 mps 723 mmHg 54%
    11:00 +26°C° 0 mm 2 mps 722 mmHg 47%
    12:00 +27°C° 0 mm 3 mps 722 mmHg 41%
    13:00 +27°C° 0 mm 3 mps 722 mmHg 40%
    14:00 +28°C° 0 mm 3 mps 721 mmHg 39%
    15:00 +28°C° 0 mm 4 mps 721 mmHg 38%
    16:00 +27°C° 0 mm 4 mps 721 mmHg 43%
    17:00 +26°C° 0 mm 4 mps 721 mmHg 47%
    18:00 +25°C° 0 mm 4 mps 721 mmHg 52%
    19:00 +25°C° 0 mm 3 mps 721 mmHg 54%
    20:00 +24°C° 0 mm 2 mps 721 mmHg 56%
    21:00 +24°C° 0 mm 1 mps 721 mmHg 59%
    22:00 +23°C° 0 mm 1 mps 721 mmHg 61%
    23:00 +23°C° 0 mm 1 mps 720 mmHg 62%

    1 October, Sunday

    Time Temperature Precipitation Wind Pressure Humidity
    00:00 +23°C° 0 mm 1 mps 720 mmHg 64%
    01:00 +22°C° 0 mm 1 mps 720 mmHg 66%
    02:00 +22°C° 0 mm 1 mps 720 mmHg 68%
    03:00 +22°C° 0 mm 1 mps 719 mmHg 71%
    04:00 +22°C° 0 mm 1 mps 719 mmHg 72%
    05:00 +21°C° 0 mm 1 mps 719 mmHg 73%
    06:00 +21°C° 0 mm 1 mps 719 mmHg 75%
    07:00 +22°C° 0 mm 1 mps 720 mmHg 71%
    08:00 +23°C° 0 mm 1 mps 720 mmHg 66%
    09:00 +23°C° 0 mm 1 mps 720 mmHg 62%
    10:00 +24°C° 0 mm 1 mps 720 mmHg 57%
    11:00 +25°C° 0 mm 2 mps 720 mmHg 52%
    12:00 +26°C° 0 mm 2 mps 720 mmHg 47%
    13:00 +26°C° 0 mm 3 mps 719 mmHg 47%
    14:00 +26°C° 0 mm 3 mps 719 mmHg 47%
    15:00 +26°C° 0 mm 3 mps 719 mmHg 47%
    16:00 +25°C° 0.4 mm 3 mps 719 mmHg 51%
    17:00 +25°C° 0.4 mm 3 mps 719 mmHg 54%
    18:00 +24°C° 0.4 mm 3 mps 719 mmHg 57%
    19:00 +24°C° 0 mm 2 mps 720 mmHg 59%
    20:00 +23°C° 0 mm 2 mps 720 mmHg 62%
    21:00 +23°C° 0 mm 2 mps 720 mmHg 64%
    22:00 +23°C° 0 mm 2 mps 720 mmHg 66%
    23:00 +21°C° 0 mm 2 mps 720 mmHg 69%
    Show more